Home   Weather   Limerick   Past weeks

Flag for Ireland Past Weather in Limerick, Ireland — Yesterday and Last 2 Weeks

Now
57 °F

Broken clouds.


Feels Like: 57 °F
Forecast: 38 / 52 °F
Wind: 5 mph from South

Location: Shannon Airport

Current Time: Apr 23, 2017 at 3:07:40 pm

Latest Report: Apr 23, 2017 at 2:30 pm


Visibility: N/A

Pressure: 30.30 "Hg

Humidity: 59%

Dew Point: 43 °F

Location of LimerickLocation

Past Weather in Limerick — Graph

°F

Limerick Temperature Yesterday

Maximum temperature yesterday: 55 °F (at 12:00 pm)
Minimum temperature yesterday: 43 °F (at 6:30 am)
Average temperature yesterday: 51 °F

High & Low Weather Summary for the Past Weeks

 TemperatureHumidityPressure
High63 °F (Apr 8, 3:30 pm)100% (Apr 13, 11:30 pm)30.66 "Hg (Apr 13, 11:30 pm)
Low39 °F (Apr 21, 6:00 am)48% (Apr 20, 5:00 pm)30.01 "Hg (Apr 8, 4:00 pm)
Average50 °F80%30.33 "Hg
* Reported Apr 8 1:00 pm — Apr 23 1:00 pm, Limerick, Weather by CustomWeather, © 2017

Note: Actual official high and low records may vary slightly from our data, if they occured in-between our weather recording intervals... More about our weather records

Advertising

Limerick Weather History for the Previous 24 Hours

Scroll right to see more
 ConditionsComfort  
Time TempWeatherWind HumidityBarometerVisibility
1:00 pm
Sun, Apr 23
59 °FPartly sunny.3 mph55%30.33 "HgN/A
12:30 pm57 °FBroken clouds.5 mph59%30.33 "HgN/A
12:00 pm59 °FBroken clouds.3 mph51%30.33 "HgN/A
11:30 am57 °FPartly sunny.2 mph59%30.33 "HgN/A
11:00 am55 °FPartly sunny.3 mph67%30.36 "HgN/A
10:30 am55 °FBroken clouds.5 mph67%30.36 "HgN/A
10:00 am54 °FPartly sunny.2 mph72%30.36 "HgN/A
9:30 am52 °FPartly sunny.1 mph77%30.36 "HgN/A
9:00 am52 °FPartly sunny.1 mph82%30.36 "HgN/A
8:00 am50 °FPartly sunny.1 mph88%30.36 "HgN/A
7:30 am48 °FPartly sunny.2 mph87%30.36 "HgN/A
7:00 am48 °FPartly sunny.2 mph87%30.36 "HgN/A
6:30 am48 °FPartly sunny.2 mph87%30.36 "HgN/A
6:00 am48 °FPassing clouds.3 mph87%30.36 "HgN/A
5:30 am48 °FPassing clouds.3 mph87%30.36 "HgN/A
5:00 am48 °FPassing clouds.1 mph87%30.39 "HgN/A
4:30 am48 °FPassing clouds.2 mph87%30.39 "HgN/A
4:00 am48 °FPassing clouds.2 mph87%30.39 "HgN/A
3:30 am48 °FPassing clouds.5 mph87%30.39 "HgN/A
3:00 am50 °FPassing clouds.5 mph82%30.39 "HgN/A
2:30 am50 °FPassing clouds.5 mph82%30.39 "HgN/A
2:00 am50 °FPassing clouds.5 mph82%30.42 "HgN/A
1:30 am50 °FPassing clouds.5 mph82%30.42 "HgN/A
1:00 am50 °FPassing clouds.3 mph82%30.42 "HgN/A
12:30 am50 °FPassing clouds.3 mph82%30.42 "HgN/A
12:00 am50 °FPassing clouds.3 mph82%30.42 "HgN/A
11:30 pm
Sat, Apr 22
52 °FPassing clouds.3 mph77%30.42 "HgN/A
11:00 pm52 °FPassing clouds.5 mph72%30.42 "HgN/A
10:30 pm52 °FPassing clouds.5 mph72%30.42 "HgN/A
10:00 pm52 °FPassing clouds.7 mph72%30.42 "HgN/A
9:30 pm52 °FPassing clouds.5 mph77%30.42 "HgN/A
9:00 pm52 °FPassing clouds.6 mph72%30.42 "HgN/A
8:30 pm52 °FPartly sunny.5 mph72%30.42 "HgN/A
7:30 pm54 °FPartly sunny.7 mph67%30.42 "HgN/A
7:00 pm54 °FPartly sunny.7 mph67%30.42 "HgN/A
6:30 pm54 °FPartly sunny.9 mph67%30.42 "HgN/A
6:00 pm55 °FPartly sunny.5 mph63%30.45 "HgN/A
5:30 pm55 °FPartly sunny.2 mph63%30.45 "HgN/A
5:00 pm55 °FOvercast.5 mph63%30.45 "HgN/A
4:30 pm55 °FOvercast.5 mph59%30.45 "HgN/A
4:00 pm55 °FOvercast.7 mph59%30.45 "HgN/A
3:30 pm55 °FMore clouds than sun.6 mph63%30.45 "HgN/A
3:00 pm55 °FMore clouds than sun.6 mph59%30.48 "HgN/A
Weather by CustomWeather, © 2017

See weather overviewHow to use our weather pages